TimeCST,TemperatureF,Dew PointF,Humidity,Sea Level PressureIn,VisibilityMPH,Wind Direction,Wind SpeedMPH,Gust SpeedMPH,PrecipitationIn,Events,Conditions,WindDirDegrees,DateUTC
12:53 AM,36.0,21.9,57,30.15,10.0,Calm,Calm,-,N/A,,Clear,0,2012-12-14 06:53:00
1:53 AM,37.9,23.0,55,30.15,10.0,Calm,Calm,-,N/A,,Clear,0,2012-12-14 07:53:00
2:53 AM,37.9,21.9,53,30.15,10.0,South,4.6,-,N/A,,Clear,180,2012-12-14 08:53:00
3:53 AM,39.0,21.9,50,30.14,10.0,South,3.5,-,N/A,,Clear,180,2012-12-14 09:53:00
4:53 AM,39.9,23.0,51,30.13,10.0,South,4.6,-,N/A,,Clear,170,2012-12-14 10:53:00
5:53 AM,45.0,23.0,42,30.13,10.0,SSE,3.5,-,N/A,,Clear,160,2012-12-14 11:53:00
6:53 AM,46.9,23.0,39,30.12,10.0,SSE,6.9,-,N/A,,Overcast,160,2012-12-14 12:53:00
7:53 AM,48.0,23.0,37,30.11,10.0,SSE,8.1,-,N/A,,Overcast,160,2012-12-14 13:53:00
8:53 AM,50.0,24.1,36,30.10,10.0,SSE,8.1,-,N/A,,Overcast,160,2012-12-14 14:53:00
9:53 AM,52.0,24.1,34,30.11,10.0,South,11.5,-,N/A,,Overcast,170,2012-12-14 15:53:00
10:53 AM,53.1,25.0,34,30.11,10.0,South,8.1,-,N/A,,Overcast,170,2012-12-14 16:53:00
11:53 AM,54.0,25.0,33,30.07,10.0,South,11.5,-,N/A,,Overcast,170,2012-12-14 17:53:00
12:53 PM,55.0,24.1,30,30.02,10.0,SSE,12.7,19.6,N/A,,Overcast,160,2012-12-14 18:53:00
1:53 PM,55.0,24.1,30,29.97,10.0,SSE,9.2,18.4,N/A,,Overcast,160,2012-12-14 19:53:00
2:00 PM,55.4,24.8,31,29.94,10.0,SSE,12.7,17.3,N/A,,Overcast,160,2012-12-14 20:00:00
2:53 PM,51.1,34.0,52,29.94,10.0,South,17.3,26.5,0.00,Rain,Light Rain,170,2012-12-14 20:53:00
3:08 PM,48.2,37.4,66,29.92,10.0,SSE,13.8,23.0,0.01,Rain,Light Rain,160,2012-12-14 21:08:00
3:53 PM,46.9,37.9,71,29.93,10.0,SSE,6.9,17.3,0.02,,Mostly Cloudy,150,2012-12-14 21:53:00
4:53 PM,48.9,36.0,61,29.90,10.0,SSE,11.5,16.1,0.00,,Overcast,150,2012-12-14 22:53:00
5:53 PM,50.0,35.1,57,29.89,10.0,SSE,12.7,19.6,N/A,,Overcast,160,2012-12-14 23:53:00
6:21 PM,48.2,35.6,62,29.85,10.0,SSE,11.5,17.3,N/A,,Overcast,150,2012-12-15 00:21:00
6:53 PM,48.9,36.0,61,29.85,10.0,SSE,12.7,20.7,N/A,,Overcast,150,2012-12-15 00:53:00
7:24 PM,48.2,37.4,66,29.84,10.0,SSE,11.5,18.4,0.01,Rain,Light Rain,150,2012-12-15 01:24:00
7:53 PM,46.9,39.0,74,29.86,6.0,South,9.2,18.4,0.03,Rain,Light Rain,170,2012-12-15 01:53:00
8:53 PM,46.0,39.9,79,29.82,10.0,SSE,11.5,21.9,0.01,,Overcast,160,2012-12-15 02:53:00
9:53 PM,46.9,39.0,74,29.80,10.0,South,10.4,18.4,0.00,,Overcast,170,2012-12-15 03:53:00
10:53 PM,46.9,44.1,90,29.85,8.0,Calm,Calm,-,0.05,Rain,Light Rain,0,2012-12-15 04:53:00
11:53 PM,48.0,44.1,86,29.78,10.0,South,5.8,-,0.00,,Overcast,170,2012-12-15 05:53:00